• In Uzbekistan
  • List of Countries
  • For 7 days
  • Water Temperature
  • Satellite Maps
  • Weather Map
  • Weather Widgets
  • user-avatar
    Login

    Hourly Weather Bukow

    Today, 17 July, Tuesday

    Time Temperature Precipitation Wind Pressure Humidity
    00:00 +15°C° 0 mm 2 mps 729 mmHg 96%
    01:00 +15°C° 0 mm 1 mps 729 mmHg 97%
    02:00 +15°C° 0.2 mm 1 mps 728 mmHg 97%
    03:00 +15°C° 0.2 mm 1 mps 728 mmHg 97%
    04:00 +15°C° 0.2 mm 2 mps 728 mmHg 98%
    05:00 +16°C° 0.1 mm 2 mps 728 mmHg 96%
    06:00 +17°C° 0.1 mm 2 mps 728 mmHg 94%
    07:00 +18°C° 0 mm 3 mps 728 mmHg 92%
    08:00 +19°C° 0.4 mm 3 mps 728 mmHg 91%
    09:00 +20°C° 0.4 mm 4 mps 728 mmHg 90%
    10:00 +20°C° 0.4 mm 4 mps 728 mmHg 89%
    11:00 +21°C° 0.5 mm 4 mps 727 mmHg 87%
    12:00 +21°C° 0.5 mm 4 mps 727 mmHg 86%
    13:00 +22°C° 0.5 mm 5 mps 727 mmHg 84%
    14:00 +22°C° 0.5 mm 5 mps 727 mmHg 82%
    15:00 +22°C° 0.5 mm 5 mps 727 mmHg 81%
    16:00 +22°C° 0.5 mm 5 mps 727 mmHg 79%
    17:00 +21°C° 0.2 mm 4 mps 727 mmHg 83%
    18:00 +20°C° 0.2 mm 4 mps 727 mmHg 87%
    19:00 +19°C° 0.2 mm 4 mps 727 mmHg 91%
    20:00 +18°C° 0 mm 3 mps 727 mmHg 93%
    21:00 +18°C° 0 mm 3 mps 727 mmHg 95%
    22:00 +17°C° 0 mm 3 mps 727 mmHg 96%
    23:00 +17°C° 0.1 mm 3 mps 727 mmHg 96%

    Tomorrow, 18 July, Wednesday

    Time Temperature Precipitation Wind Pressure Humidity
    00:00 +17°C° 0.1 mm 3 mps 727 mmHg 97%
    01:00 +17°C° 0.1 mm 3 mps 727 mmHg 97%
    02:00 +17°C° 0.1 mm 3 mps 727 mmHg 97%
    03:00 +17°C° 0.1 mm 3 mps 727 mmHg 97%
    04:00 +17°C° 0.1 mm 3 mps 727 mmHg 97%
    05:00 +18°C° 0.1 mm 3 mps 727 mmHg 97%
    06:00 +18°C° 0.1 mm 3 mps 727 mmHg 96%
    07:00 +19°C° 0.1 mm 2 mps 727 mmHg 95%
    08:00 +19°C° 0.2 mm 3 mps 727 mmHg 93%
    09:00 +20°C° 0.2 mm 3 mps 727 mmHg 91%
    10:00 +21°C° 0.2 mm 3 mps 727 mmHg 89%
    11:00 +21°C° 0.4 mm 3 mps 727 mmHg 88%
    12:00 +21°C° 0.4 mm 3 mps 727 mmHg 86%
    13:00 +21°C° 0.4 mm 4 mps 727 mmHg 85%
    14:00 +22°C° 0.1 mm 4 mps 727 mmHg 82%
    15:00 +22°C° 0.1 mm 3 mps 727 mmHg 79%
    16:00 +24°C° 0.1 mm 3 mps 727 mmHg 76%
    17:00 +22°C° 0.1 mm 3 mps 727 mmHg 81%
    18:00 +21°C° 0.1 mm 2 mps 727 mmHg 86%
    19:00 +20°C° 0.1 mm 2 mps 727 mmHg 91%
    20:00 +20°C° 0.1 mm 2 mps 727 mmHg 93%
    21:00 +19°C° 0.1 mm 2 mps 727 mmHg 94%
    22:00 +19°C° 0.1 mm 1 mps 728 mmHg 96%
    23:00 +18°C° 0 mm 2 mps 728 mmHg 97%

    Day after tomorrow, 19 July, Thursday

    Time Temperature Precipitation Wind Pressure Humidity
    00:00 +18°C° 0 mm 2 mps 728 mmHg 97%
    01:00 +18°C° 0 mm 2 mps 728 mmHg 98%
    02:00 +18°C° 0.2 mm 2 mps 728 mmHg 98%
    03:00 +19°C° 0.2 mm 2 mps 728 mmHg 98%
    04:00 +19°C° 0.2 mm 3 mps 728 mmHg 98%
    05:00 +19°C° 0.2 mm 3 mps 729 mmHg 97%
    06:00 +20°C° 0.2 mm 3 mps 729 mmHg 97%
    07:00 +20°C° 0.2 mm 3 mps 729 mmHg 96%
    08:00 +21°C° 0.3 mm 3 mps 730 mmHg 94%
    09:00 +22°C° 0.3 mm 3 mps 730 mmHg 92%
    10:00 +22°C° 0.3 mm 4 mps 730 mmHg 89%
    11:00 +23°C° 0.4 mm 4 mps 730 mmHg 87%
    12:00 +23°C° 0.4 mm 4 mps 730 mmHg 85%
    13:00 +25°C° 0.4 mm 5 mps 730 mmHg 83%
    14:00 +25°C° 0.1 mm 5 mps 730 mmHg 81%
    15:00 +25°C° 0.1 mm 5 mps 730 mmHg 80%
    16:00 +25°C° 0.1 mm 5 mps 731 mmHg 78%
    17:00 +23°C° 0.2 mm 5 mps 731 mmHg 81%
    18:00 +22°C° 0.2 mm 5 mps 731 mmHg 85%
    19:00 +21°C° 0.2 mm 4 mps 731 mmHg 88%
    20:00 +20°C° 0.1 mm 4 mps 731 mmHg 91%
    21:00 +19°C° 0.1 mm 4 mps 731 mmHg 93%
    22:00 +19°C° 0.1 mm 4 mps 732 mmHg 96%
    23:00 +18°C° 0.1 mm 4 mps 732 mmHg 96%

    20 July, Friday

    Time Temperature Precipitation Wind Pressure Humidity
    00:00 +18°C° 0.1 mm 4 mps 732 mmHg 97%
    01:00 +18°C° 0.1 mm 4 mps 732 mmHg 97%
    02:00 +18°C° 0.1 mm 4 mps 732 mmHg 97%
    03:00 +18°C° 0.1 mm 4 mps 732 mmHg 97%
    04:00 +18°C° 0.1 mm 4 mps 732 mmHg 97%
    05:00 +19°C° 0.1 mm 4 mps 732 mmHg 96%
    06:00 +19°C° 0.1 mm 4 mps 732 mmHg 94%
    07:00 +19°C° 0.1 mm 4 mps 732 mmHg 93%
    08:00 +20°C° 0 mm 4 mps 732 mmHg 88%
    09:00 +21°C° 0 mm 4 mps 733 mmHg 83%
    10:00 +22°C° 0 mm 4 mps 733 mmHg 78%
    11:00 +23°C° 0.1 mm 4 mps 733 mmHg 72%
    12:00 +25°C° 0.1 mm 5 mps 732 mmHg 67%
    13:00 +26°C° 0.1 mm 5 mps 732 mmHg 61%
    14:00 +26°C° 0.1 mm 5 mps 732 mmHg 64%
    15:00 +25°C° 0.1 mm 5 mps 732 mmHg 67%
    16:00 +25°C° 0.1 mm 5 mps 732 mmHg 70%
    17:00 +23°C° 0.1 mm 5 mps 732 mmHg 76%
    18:00 +21°C° 0.1 mm 4 mps 732 mmHg 82%
    19:00 +20°C° 0.1 mm 3 mps 732 mmHg 88%
    20:00 +19°C° 0 mm 3 mps 732 mmHg 90%
    21:00 +18°C° 0 mm 3 mps 732 mmHg 93%
    22:00 +17°C° 0 mm 3 mps 732 mmHg 96%
    23:00 +17°C° 0 mm 3 mps 732 mmHg 96%

    21 July, Saturday

    Time Temperature Precipitation Wind Pressure Humidity
    00:00 +17°C° 0 mm 3 mps 732 mmHg 96%
    01:00 +16°C° 0 mm 2 mps 732 mmHg 96%
    02:00 +16°C° 0 mm 2 mps 732 mmHg 97%
    03:00 +16°C° 0 mm 2 mps 732 mmHg 97%
    04:00 +15°C° 0 mm 2 mps 732 mmHg 97%
    05:00 +17°C° 0 mm 2 mps 732 mmHg 94%
    06:00 +18°C° 0 mm 3 mps 732 mmHg 90%
    07:00 +19°C° 0 mm 3 mps 732 mmHg 87%
    08:00 +21°C° 0 mm 3 mps 732 mmHg 81%
    09:00 +22°C° 0 mm 3 mps 732 mmHg 75%
    10:00 +25°C° 0 mm 3 mps 732 mmHg 69%
    11:00 +25°C° 0.5 mm 3 mps 732 mmHg 69%
    12:00 +26°C° 0.5 mm 3 mps 731 mmHg 69%
    13:00 +26°C° 0.5 mm 3 mps 731 mmHg 69%
    14:00 +26°C° 0.3 mm 3 mps 731 mmHg 70%
    15:00 +26°C° 0.3 mm 3 mps 731 mmHg 72%
    16:00 +25°C° 0.3 mm 3 mps 731 mmHg 73%
    17:00 +24°C° 0.1 mm 2 mps 731 mmHg 77%
    18:00 +23°C° 0.1 mm 2 mps 731 mmHg 81%
    19:00 +22°C° 0.1 mm 1 mps 731 mmHg 86%
    20:00 +21°C° 0 mm 1 mps 731 mmHg 87%
    21:00 +20°C° 0 mm 1 mps 731 mmHg 89%
    22:00 +19°C° 0 mm 1 mps 731 mmHg 91%
    23:00 +19°C° 0 mm 1 mps 731 mmHg 91%

    22 July, Sunday

    Time Temperature Precipitation Wind Pressure Humidity
    00:00 +18°C° 0 mm 1 mps 731 mmHg 92%
    01:00 +18°C° 0 mm 1 mps 730 mmHg 93%
    02:00 +18°C° 0 mm 1 mps 730 mmHg 93%
    03:00 +16°C° 0 mm 1 mps 730 mmHg 94%
    04:00 +16°C° 0 mm 1 mps 730 mmHg 94%
    05:00 +18°C° 0 mm 1 mps 730 mmHg 90%
    06:00 +20°C° 0 mm 1 mps 731 mmHg 86%
    07:00 +20°C° 0 mm 2 mps 731 mmHg 81%
    08:00 +23°C° 0.1 mm 2 mps 731 mmHg 78%
    09:00 +24°C° 0.1 mm 2 mps 731 mmHg 74%
    10:00 +25°C° 0.1 mm 2 mps 731 mmHg 70%
    11:00 +25°C° 0.3 mm 3 mps 731 mmHg 68%
    12:00 +26°C° 0.3 mm 3 mps 730 mmHg 65%
    13:00 +26°C° 0.3 mm 3 mps 730 mmHg 63%
    14:00 +26°C° 0.3 mm 3 mps 730 mmHg 64%
    15:00 +26°C° 0.3 mm 3 mps 730 mmHg 66%
    16:00 +26°C° 0.3 mm 3 mps 730 mmHg 67%
    17:00 +24°C° 0.2 mm 3 mps 731 mmHg 72%
    18:00 +23°C° 0.2 mm 2 mps 731 mmHg 78%
    19:00 +21°C° 0.2 mm 2 mps 731 mmHg 84%
    20:00 +20°C° 0.1 mm 2 mps 731 mmHg 86%
    21:00 +19°C° 0.1 mm 2 mps 732 mmHg 88%
    22:00 +18°C° 0.1 mm 2 mps 732 mmHg 90%
    23:00 +17°C° 0 mm 2 mps 732 mmHg 91%
    Show more